Overview Statistics Trail Chart Weather Telemetry Raw packets
 

This is the latest recevied weather packets stored in our database for station/object WX5KDM. If no packets are shown the sender has not sent any weather packets the latest 10 day(s).

<< 79 80 81 82 83 84 85 >>
Time Temp. Humidity Pressure Rain* Wind** Luminosity Snow
1788045397 35° C 42% 1017 hPa 0 mm - - -
1788045093 34.44° C 44% 1017.1 hPa 0 mm - - -
1788044792 35° C 40% 1016.9 hPa 0 mm - - -
1788044487 33.89° C 39% 1017 hPa 0 mm - - -
1788044186 34.44° C 38% 1017.1 hPa 0 mm - - -
1788043883 34.44° C 37% 1017.1 hPa 0 mm - - -
1788043583 35° C 38% 1017 hPa 0 mm - - -
1788043278 34.44° C 37% 1016.9 hPa 0 mm - - -
1788042973 34.44° C 38% 1017.2 hPa 0 mm - - -
1788042668 34.44° C 38% 1017 hPa 0 mm - - -
1788042367 35.56° C 38% 1017.2 hPa 0 mm - - -
1788042062 35° C 35% 1017.1 hPa 0 mm - - -
1788041758 35° C 37% 1017.2 hPa 0 mm - - -
1788041453 35° C 37% 1017.2 hPa 0 mm - - -
1788041152 35° C 37% 1017.3 hPa 0 mm - - -
1788040847 34.44° C 37% 1017.1 hPa 0 mm - - -
1788040545 35° C 40% 1017.2 hPa 0 mm - - -
1788040242 35° C 37% 1017.3 hPa 0 mm - - -
1788039940 34.44° C 37% 1017.1 hPa 0 mm - - -
1788039635 35° C 38% 1017.2 hPa 0 mm - - -
1788039331 35° C 41% 1017.4 hPa 0 mm - - -
1788039026 35° C 39% 1017.5 hPa 0 mm - - -
1788038720 35.56° C 40% 1017.4 hPa 0 mm - - -
1788038416 35.56° C 39% 1017.5 hPa 0 mm - - -
1788038110 34.44° C 43% 1017.5 hPa 0 mm - - -

* Rain latest hour (hover to see other rain measurements)
** Current wind speed in m/s (hover to see current wind gust speed)